[[{"header":{"parameterUnit":"m.s-1","parameterCategory":1,"la1":30.2991,"la2":30.254,"lo1":-89.0895,"lo2":-89.0444,"dy":0.0017,"dx":0.0017,"nx":28,"ny":28,"refTime":"2025-02-04T03:00:00:Z","depth":0,"parameterNumber":2,"parameterNumberName":"U-component_of_WINDS"},"data":[0,0,0,0,0,0,0,0,0,0,0,0,0,0,0,0,0,0,0,0,0,0,0,0,0,0,0,0,0,0,0,0,0,0,0,0,0,0,0,0,0,0,0,0,0,0,0,0,0,0,0,0,0,0,0,0,0,0,-0.8395,-0.8395,0,-0.8378,-0.8378,-0.8378,-0.8331,-0.833,-0.8329,-0.8328,-0.8312,-0.8312,-0.8313,0,0,0,0,0,0,0,0,0,0,0,0,0,-0.8388,-0.8389,-0.8395,-0.8395,-0.8395,-0.8378,-0.8378,-0.8378,-0.8331,-0.833,-0.8328,-0.8327,-0.8312,-0.8312,-0.8313,0,0,0,0,0,0,0,0,0,0,0,0,0,-0.8383,-0.8389,-0.8395,-0.8369,-0.8367,-0.8378,-0.8378,-0.8378,-0.8331,-0.833,-0.8328,-0.8327,-0.8312,-0.8312,-0.8313,-0.8349,0,0,-0.8316,-0.8316,0,0,0,0,0,0,0,0,-0.8384,-0.8384,-0.8373,-0.8371,-0.8368,-0.8355,-0.837,-0.8368,-0.8332,-0.8345,-0.8328,-0.8326,-0.8328,-0.8327,-0.8327,-0.8348,-0.8347,-0.8316,-0.8316,-0.8317,-0.8317,0,0,0,0,0,0,0,-0.8384,-0.8384,-0.8389,-0.8373,-0.837,-0.8359,-0.8357,-0.8369,-0.8345,-0.8344,-0.834,-0.8339,-0.8326,-0.8327,-0.8327,-0.8347,-0.8316,-0.8316,-0.8317,-0.8317,-0.8397,-0.8399,0,0,0,0,0,0,-0.8388,-0.8385,-0.8389,-0.8388,-0.8372,-0.836,-0.8358,-0.8361,-0.8345,-0.8341,-0.834,-0.8337,-0.8326,-0.8326,-0.8326,-0.8367,-0.8317,-0.8317,-0.8318,-0.8395,-0.8397,-0.8399,0,0,0,0,0,0,-0.8388,-0.8389,-0.839,-0.8385,-0.8385,-0.8362,-0.8366,-0.8361,-0.8362,-0.8342,-0.8338,-0.8345,-0.8325,-0.8325,-0.8343,-0.8366,-0.8318,-0.8318,-0.8393,-0.8396,-0.8398,-0.8449,0,0,0,0,0,0,-0.8388,-0.8389,-0.8402,-0.8386,-0.8385,-0.8407,-0.8367,-0.8362,-0.8363,-0.8359,-0.8346,-0.8342,-0.8324,-0.8343,-0.8344,-0.8366,-0.8319,-0.8391,-0.8395,-0.8398,-0.8445,-0.8453,-0.8459,0,0,0,0,0,-0.8388,-0.8417,-0.8403,-0.8404,-0.8401,-0.8409,-0.8408,-0.8386,-0.8365,-0.8378,-0.8366,-0.8342,-0.8363,-0.8345,-0.8346,-0.8369,-0.839,-0.8394,-0.8397,-0.8442,-0.8451,-0.8459,0,0,0,0,0,0,-0.8437,-0.8415,-0.8398,-0.8423,-0.8418,-0.8401,-0.8416,-0.8396,-0.8397,-0.8393,-0.8366,-0.8363,-0.8386,-0.8379,-0.8359,-0.8402,-0.8373,-0.8377,-0.8406,-0.8415,-0.8422,-0.8423,-0.832,0,0,0,0,0,-0.845,-0.8458,-0.8438,-0.8462,-0.8461,-0.8439,-0.8442,-0.8425,-0.8419,-0.8417,-0.8405,-0.8401,-0.8406,-0.841,-0.8414,-0.8444,-0.8441,-0.846,-0.8467,-0.8473,-0.8477,-0.8493,-0.8501,-0.8411,-0.8411,-0.8411,0,0,-0.8478,-0.8467,-0.8474,-0.8472,-0.8466,-0.8475,-0.8438,-0.8449,-0.8456,-0.8418,-0.8435,-0.8427,-0.842,-0.8445,-0.8455,-0.844,-0.8501,-0.8478,-0.8483,-0.8483,-0.8498,-0.8506,-0.8514,-0.8414,-0.8413,-0.8413,0,0,-0.8534,-0.8527,-0.8546,-0.8541,-0.8532,-0.8518,-0.8522,-0.8508,-0.8501,-0.8517,-0.849,-0.8498,-0.8507,-0.8504,-0.8503,-0.8558,-0.8537,-0.8561,-0.8597,-0.8613,-0.862,-0.8626,-0.8646,-0.8654,-0.8564,-0.8565,-0.8565,0,-0.8571,-0.8583,-0.8558,-0.8571,-0.8571,-0.8538,-0.8557,-0.8554,-0.8547,-0.8548,-0.8531,-0.8543,-0.8536,-0.8559,-0.8573,-0.8573,-0.8578,-0.8562,-0.8621,-0.8627,-0.8632,-0.8651,-0.8659,-0.8567,-0.8567,-0.8567,-0.8567,0,-0.8628,-0.8637,-0.8654,-0.8648,-0.865,-0.8666,-0.8644,-0.865,-0.8633,-0.8621,-0.8638,-0.8629,-0.863,-0.8635,-0.8619,-0.8656,-0.8647,-0.8626,-0.8595,-0.8644,-0.8661,-0.8668,-0.8572,-0.8571,-0.857,-0.8569,0,0,-0.8714,-0.8694,-0.8701,-0.8698,-0.8686,-0.8693,-0.8708,-0.8709,-0.8714,-0.8711,-0.8723,-0.8732,-0.8713,-0.8712,-0.8696,-0.871,-0.8755,-0.8687,-0.8686,-0.87,-0.8796,-0.8812,-0.882,-0.874,-0.8742,-0.8743,-0.8796,0,-0.8767,-0.8791,-0.8769,-0.8798,-0.8806,-0.8775,-0.8788,-0.8783,-0.8772,-0.8778,-0.8766,-0.8773,-0.8747,-0.8746,-0.8758,-0.8746,-0.8773,-0.8742,-0.8752,-0.8753,-0.8755,-0.8829,-0.8846,-0.8897,-0.8803,-0.8804,-0.8805,0,-0.8832,-0.8831,-0.886,-0.8847,-0.885,-0.8862,-0.8861,-0.8867,-0.8861,-0.8852,-0.8852,-0.8831,-0.8846,-0.8816,-0.8836,-0.8815,-0.8818,-0.8813,-0.8814,-0.8814,-0.8782,-0.8831,-0.8912,-0.892,-0.8815,-0.8814,-0.8813,0,-0.8892,-0.8898,-0.8916,-0.8915,-0.89,-0.8909,-0.8903,-0.8895,-0.8898,-0.8897,-0.8899,-0.89,-0.8901,-0.8903,-0.8884,-0.8865,-0.8907,-0.8876,-0.89,-0.8901,-0.8911,-0.891,-0.8993,-0.8913,-0.8913,-0.8912,-0.8912,0,-0.8953,-0.8972,-0.8943,-0.8954,-0.8975,-0.8951,-0.8972,-0.8963,-0.8956,-0.8966,-0.8939,-0.8949,-0.8923,-0.893,-0.8916,-0.8934,-0.8935,-0.8929,-0.8925,-0.8931,-0.8932,-0.8932,-0.8928,-0.8914,-0.8914,-0.8914,-0.8913,0,-0.9023,-0.9004,-0.9022,-0.9007,-0.9003,-0.9019,-0.9006,-0.9016,-0.9004,-0.9016,-0.9018,-0.8998,-0.9005,-0.8986,-0.8991,-0.8981,-0.9008,-0.8998,-0.901,-0.9007,-0.9033,-0.9031,-0.912,-0.913,-0.9043,-0.9044,-0.9044,0,-0.9063,-0.9077,-0.9063,-0.9067,-0.9063,-0.907,-0.9072,-0.9049,-0.9052,-0.9046,-0.9057,-0.9062,-0.9064,-0.9077,-0.9064,-0.9067,-0.9057,-0.9088,-0.9058,-0.9064,-0.9058,-0.9057,-0.9059,-0.9095,-0.9096,-0.9096,-0.9097,0,-0.9137,-0.9127,-0.9131,-0.9131,-0.9135,-0.9134,-0.9132,-0.9137,-0.9112,-0.9117,-0.9124,-0.9126,-0.913,-0.9136,-0.9136,-0.9131,-0.911,-0.9107,-0.9113,-0.912,-0.9126,-0.9123,-0.9028,-0.9105,-0.9104,-0.9104,-0.9103,-0.9103,-0.9193,-0.9204,-0.9196,-0.9201,-0.9197,-0.9196,-0.9205,-0.9193,-0.9198,-0.9199,-0.9186,-0.9195,-0.9189,-0.9188,-0.9184,-0.9192,-0.9178,-0.9187,-0.9189,-0.9191,-0.9196,-0.9125,-0.9192,-0.9192,-0.9192,-0.9191,-0.9191,0,-0.9266,-0.9259,-0.9264,-0.9261,-0.9266,-0.9246,-0.9242,-0.9247,-0.9256,-0.9252,-0.9255,-0.9263,-0.9268,-0.9255,-0.9258,-0.9267,-0.9258,-0.9269,-0.9268,-0.9267,-0.9208,-0.9202,-0.9276,-0.9276,-0.9276,-0.9276,-0.9276,-0.9276,-0.9304,-0.9321,-0.9311,-0.9326,-0.932,-0.9329,-0.9328,-0.9327,-0.9324,-0.9334,-0.9337,-0.9329,-0.9321,-0.9324,-0.9328,-0.9324,-0.9327,-0.9341,-0.9334,-0.9279,-0.9271,-0.9263,-0.9258,-0.9342,-0.9342,-0.9392,-0.9393,-0.9393]},{"header":{"parameterUnit":"m.s-1","parameterCategory":1,"la1":30.2991,"la2":30.254,"lo1":-89.0895,"lo2":-89.0444,"dy":0.0017,"dx":0.0017,"nx":28,"ny":28,"refTime":"2025-02-04T03:00:00:Z","depth":0,"parameterNumber":3,"parameterNumberName":"V-component_of_WINDS"},"data":[0,0,0,0,0,0,0,0,0,0,0,0,0,0,0,0,0,0,0,0,0,0,0,0,0,0,0,0,0,0,0,0,0,0,0,0,0,0,0,0,0,0,0,0,0,0,0,0,0,0,0,0,0,0,0,0,0,0,0.952,0.9521,0,0.955,0.955,0.955,0.9576,0.9577,0.9577,0.9577,0.9607,0.9607,0.9608,0,0,0,0,0,0,0,0,0,0,0,0,0,0.9488,0.9489,0.952,0.9521,0.9521,0.9549,0.955,0.955,0.9576,0.9577,0.9577,0.9577,0.9607,0.9607,0.9608,0,0,0,0,0,0,0,0,0,0,0,0,0,0.9508,0.9489,0.952,0.9538,0.9539,0.9549,0.955,0.955,0.9576,0.9577,0.9577,0.9578,0.9606,0.9607,0.9608,0.9603,0,0,0.961,0.961,0,0,0,0,0,0,0,0,0.9507,0.9509,0.9535,0.9536,0.9538,0.956,0.9549,0.9568,0.9576,0.9562,0.9577,0.9578,0.9591,0.9593,0.9597,0.9604,0.9606,0.961,0.9611,0.9611,0.9611,0,0,0,0,0,0,0,0.9506,0.9508,0.9532,0.9535,0.9537,0.9544,0.9547,0.9553,0.9573,0.9563,0.9565,0.9569,0.9592,0.9596,0.9598,0.9606,0.961,0.9611,0.9611,0.9612,0.9613,0.9613,0,0,0,0,0,0,0.9502,0.9507,0.9531,0.9533,0.9524,0.9544,0.9548,0.9552,0.9573,0.9577,0.9568,0.957,0.9595,0.9597,0.9599,0.9596,0.9611,0.9612,0.9612,0.9613,0.9613,0.9612,0,0,0,0,0,0,0.9501,0.9503,0.953,0.952,0.9524,0.9544,0.9549,0.9553,0.9557,0.9577,0.9581,0.9569,0.9595,0.9598,0.9602,0.9598,0.9612,0.9613,0.9614,0.9613,0.9613,0.959,0,0,0,0,0,0,0.95,0.9503,0.9501,0.952,0.9525,0.9532,0.9549,0.9553,0.9559,0.9561,0.9579,0.9582,0.9596,0.9601,0.9603,0.9599,0.9613,0.9614,0.9614,0.9613,0.9591,0.9588,0.9586,0,0,0,0,0,0.9499,0.9493,0.9501,0.9504,0.9523,0.9532,0.9534,0.955,0.9558,0.9557,0.957,0.9582,0.9598,0.9601,0.9604,0.96,0.9615,0.9614,0.9613,0.9592,0.9589,0.9586,0,0,0,0,0,0,0.9472,0.9496,0.9505,0.9505,0.9516,0.9536,0.9535,0.9546,0.9555,0.9557,0.9576,0.958,0.9583,0.9592,0.9595,0.9597,0.9608,0.9608,0.9591,0.9588,0.9586,0.9584,0.9614,0,0,0,0,0,0.9467,0.9472,0.9492,0.9491,0.9496,0.9514,0.9519,0.953,0.9543,0.9547,0.956,0.9572,0.958,0.9585,0.9593,0.9592,0.9597,0.9591,0.9588,0.9586,0.9586,0.9588,0.9586,0.9609,0.9609,0.9609,0,0,0.9455,0.9468,0.947,0.9486,0.9496,0.9501,0.9518,0.9523,0.9527,0.9548,0.9553,0.9563,0.9578,0.958,0.9581,0.9587,0.958,0.9585,0.9583,0.9584,0.9587,0.9584,0.9582,0.9609,0.9609,0.9609,0,0,0.9436,0.9447,0.9447,0.9457,0.9472,0.9485,0.9485,0.9504,0.9511,0.9517,0.9533,0.9539,0.9551,0.9562,0.9568,0.9555,0.9567,0.9557,0.9545,0.9546,0.9545,0.9543,0.9539,0.9538,0.9557,0.9557,0.9557,0,0.942,0.9429,0.9446,0.945,0.9457,0.9477,0.9478,0.9487,0.9504,0.9508,0.9515,0.9532,0.9543,0.9549,0.9546,0.955,0.9552,0.9555,0.9543,0.9542,0.9541,0.9538,0.9536,0.9555,0.9556,0.9556,0.9556,0,0.9408,0.9414,0.9413,0.9429,0.9436,0.9439,0.9457,0.9462,0.9473,0.9485,0.9491,0.9505,0.9517,0.9519,0.953,0.9527,0.953,0.954,0.9551,0.9537,0.9535,0.9533,0.9554,0.9554,0.9554,0.9555,0,0,0.9373,0.9401,0.94,0.9408,0.9427,0.9432,0.9436,0.9448,0.9453,0.9464,0.9469,0.948,0.9489,0.9497,0.9509,0.951,0.9501,0.952,0.952,0.9517,0.95,0.9493,0.9491,0.9509,0.9508,0.9508,0.9499,0,0.9359,0.9367,0.9384,0.9387,0.9393,0.9413,0.9417,0.9429,0.9441,0.9448,0.9461,0.9469,0.948,0.9485,0.9487,0.9501,0.9498,0.9502,0.9514,0.9514,0.951,0.9489,0.9482,0.9472,0.9498,0.9498,0.9497,0,0.9342,0.9353,0.9357,0.9377,0.9381,0.9384,0.9397,0.9404,0.9418,0.9427,0.9436,0.945,0.9456,0.9466,0.9476,0.9478,0.9484,0.9492,0.9492,0.9494,0.9505,0.9492,0.9469,0.9468,0.9496,0.9496,0.9496,0,0.9318,0.9334,0.9339,0.9345,0.9368,0.937,0.938,0.9395,0.9402,0.9413,0.9418,0.943,0.9437,0.9446,0.9463,0.9469,0.9471,0.9482,0.9479,0.9479,0.9479,0.9479,0.9458,0.9481,0.9481,0.9481,0.9481,0,0.93,0.9302,0.9328,0.9331,0.9334,0.9354,0.9356,0.9368,0.9382,0.9388,0.9405,0.9411,0.9432,0.9441,0.9454,0.946,0.9463,0.9471,0.9474,0.9469,0.9469,0.9474,0.9475,0.9481,0.9481,0.9481,0.9481,0,0.9273,0.9291,0.9298,0.9319,0.9325,0.9326,0.9345,0.9349,0.9362,0.937,0.9373,0.9393,0.9404,0.9422,0.9438,0.9447,0.9451,0.9457,0.9446,0.9448,0.9444,0.9445,0.9426,0.9426,0.9449,0.9449,0.9448,0,0.9261,0.9263,0.9285,0.9291,0.93,0.9309,0.9316,0.9335,0.9342,0.936,0.9362,0.9375,0.9385,0.9402,0.9418,0.9431,0.9438,0.943,0.9439,0.9435,0.9439,0.9438,0.9439,0.9428,0.9428,0.9428,0.9427,0,0.9238,0.9247,0.9257,0.927,0.9278,0.9289,0.9302,0.9305,0.9327,0.9335,0.9346,0.9354,0.9371,0.9383,0.9399,0.9409,0.9422,0.9424,0.9424,0.942,0.9414,0.9418,0.9441,0.9425,0.9425,0.9425,0.9425,0.9425,0.9219,0.9222,0.9239,0.9249,0.9261,0.9272,0.9277,0.9292,0.9301,0.9317,0.9328,0.9339,0.9355,0.9377,0.9387,0.9396,0.9402,0.9401,0.9402,0.9401,0.94,0.9412,0.9399,0.9399,0.9399,0.9399,0.9399,0,0.9198,0.9209,0.9219,0.9236,0.9245,0.9256,0.9271,0.9278,0.9287,0.9301,0.9312,0.9325,0.9338,0.9356,0.937,0.9374,0.938,0.9377,0.9377,0.938,0.9394,0.9393,0.9372,0.9372,0.9372,0.9372,0.9372,0.9372,0.9188,0.9194,0.9205,0.9218,0.923,0.9241,0.9248,0.9259,0.9271,0.9285,0.9296,0.9308,0.9324,0.9339,0.9352,0.9357,0.9361,0.9356,0.9363,0.9376,0.9378,0.9381,0.938,0.9357,0.9357,0.9349,0.9349,0.9348]}]]